Location: Bamazo
(6.7448°N, 10.8189°W)
Time: 04:07:58
(UTC+00:00)

IRS-1C Rocket - Pass Details

Date: 18 September 2020
Orbit: 801 x 805 km, 99.0° (Epoch: 23 October)

Event Time Altitude Azimuth Distance (km) Brightness Sun altitude
Rises 19:15:44 0° 167° (SSE) 3,307 7.1 -9.4°
Reaches altitude 10° 19:18:03 10° 167° (SSE) 2,375 6.4 -10.0°
Maximum altitude 19:23:19 89° 254° (WSW) 805 4.1 -11.3°
Drops below altitude 10° 19:28:33 10° 347° (NNW) 2,368 6.7 -12.6°
Sets 19:30:52 0° 347° (NNW) 3,297 7.5 -13.2°
